Location: Marcé
(47.5801°N, 0.3280°W)
Time: 02:50:10
(UTC+01:00)

Explorer 11/Cluster Stage 4 - Pass Details

Date: 04 December 2021
Orbit: 467 x 1255 km, 28.8° (Epoch: 26 January)

Event Time Altitude Azimuth Distance (km) Brightness Sun altitude
Rises 04:19:50 0° 230° (SW) 3,653 - -41.5°
Reaches altitude 10° 04:23:25 10° 210° (SSW) 2,854 - -41.0°
Maximum altitude 04:27:40 17° 173° (S) 2,524 - -40.2°
Exits shadow 04:29:47 15° 154° (SSE) 2,695 9.4 -39.9°
Drops below altitude 10° 04:32:16 10° 137° (SE) 3,124 9.9 -39.5°
Sets 04:36:27 0° 119° (ESE) 4,161 10.9 -38.8°
